Location: Degersen
(52.2871°N, 9.5716°E)
Time: 05:55:53
(UTC+00:00)

FengYun 1-2 T - Pass Details

Date: 20 January 2026
Orbit: 844 x 880 km, 98.8° (Epoch: 18 February)

Event Time Altitude Azimuth Distance (km) Brightness Sun altitude
Rises 04:38:00 0° 14° (NNE) 3,459 7.5 -24.1°
Reaches altitude 10° 04:40:25 10° 12° (NNE) 2,512 6.8 -23.7°
Maximum altitude 04:45:56 69° 291° (WNW) 918 4.1 -22.9°
Enters shadow 04:49:50 20° 212° (SSW) 1,878 5.7 -22.3°
